Погода в Улу-Юле

Россия / Томская область     57°42′36″N   85°47′32″E
темп.,
°C
ветер,
м/с
пор.,
м/с
влажн.,
%
обл.,
%
осадки,
мм/ч
давл.,
гПа
погр.,
м
19 апреля, пн
пн1901:00−6св71495100 12.3 1001599
04:00−7ссв71594100 4.0 999817
07:00−10с81692100 6.3 1001998
10:00−11сз81586100 1.6 1008929
13:00−8сз7117599 1.6 10141236
16:00−7зсз61075100 0.1 10171666
19:00−8зсз51082100 0.4 10191353
22:00−10з51093100 0.3 1021866
20 апреля, вт
вт2001:00−11з41093100 0.5 1020783
04:00−11з51192100 0.2 1021739
07:00−12з51292100 0.3 1022689
10:00−9зсз5880100 0.1 1022846
13:00−5зсз5771100 0.1 10221298
16:00−4з5769100 0.1 10221433
19:00−4з367897 0.2 1022932
22:00−11ююз119671 0.1 102316
21 апреля, ср
ср2101:00−14ю1298100 0.1 102333
04:00−10ююв1497100 0.1 102282
07:00−8юв2496100 0.3 1022117
10:00−4юв2386100 0.3 1024719
13:00−2юв2376100 0.8 10241096
16:00−1в2277100 0.6 1025940
19:00−1всв2481100 1.3 1028644
22:00−6св259334 0.3 103075
22 апреля, чт
чт2201:00−10ссв25945 0.3 103271
04:00−12ссв129614 0.0 103430
07:00−8с26955 0.0 1037115
10:00−1ссв368126 0.0 1038745
13:00+1ссв45665 0.0 10391269
16:00+2ссв356358 0.0 10401524
19:00+1с257419 0.0 1042292
22:00−7ссв11955 0.0 104414
23 апреля, пт
пт2301:00−8св11975 0.0 104611
04:00−9св11965 0.0 104610
07:00−6ссв12905 0.0 104754
10:00+1ссв24745 0.0 1048715
13:00+3всв24655 0.0 10461147
16:00+4св34625 0.0 10451240
19:00+3св25765 0.0 1044260
22:00−2св25935 0.0 104478